Regional Weather Roundup
Issued by NWS Little Rock, AR

Home | Current Version | Previous Version | Text Only | Print | Product List | Glossary On
Versions: 1 2 3 4 5 6 7 8 9 10 11 12 13 14 15 16 17 18 19 20 21 22 23 24 25 26 27 28 29 30 31 32 33 34 35 36 37 38 39 40 41 42 43 44 45 46 47 48 49 50
000
ASUS44 KLZK 240012
RWRLZK

WEATHER ROUNDUP FOR ARKANSAS
NATIONAL WEATHER SERVICE LITTLE ROCK AR
700 PM CDT WED AUG 23 2017

NOTE: "FAIR" INDICATES FEW OR NO CLOUDS BELOW 12,000 FEET WITH NO
SIGNIFICANT WEATHER AND/OR OBSTRUCTIONS TO VISIBILITY.

ARZ001-003-010-029-240100-
NORTHWEST ARKANSAS

CITY           SKY/WX    TMP DP  RH WIND       PRES   REMARKS
FAYETTEVILLE   SUNNY     78  63  59 NE5       30.01F
6HR MIN TEMP:  77; 6HR MAX TEMP:  82;

FORT SMITH     SUNNY     83  71  67 E9        29.95F HX  87
6HR MIN TEMP:  80; 6HR MAX TEMP:  86;

HARRISON       PTCLDY    78  59  51 NE3       30.03F
6HR MIN TEMP:  75; 6HR MAX TEMP:  81;

BENTONVILLE    SUNNY     79  57  47 E8        30.03F
6HR MIN TEMP:  79; 6HR MAX TEMP:  81;

ROGERS         SUNNY     77  60  55 E8        30.03F
6HR MIN TEMP:  77; 6HR MAX TEMP:  80;

HIGHFILL       SUNNY     78  62  57 E7        30.02F
6HR MIN TEMP:  78; 6HR MAX TEMP:  82;

SPRINGDALE     SUNNY     77  61  57 NE8       30.04S
$$

ARZ004-005-016-240100-
NORTH CENTRAL ARKANSAS

CITY           SKY/WX    TMP DP  RH WIND       PRES   REMARKS
FLIPPIN        MOCLDY    81  57  44 CALM      29.99F
6HR MIN TEMP:  77; 6HR MAX TEMP:  82;

MTN HOME       CLEAR     78  59  51 CALM      30.01S
6HR MIN TEMP:  75; 6HR MAX TEMP:  82;

$$

ARZ040-041-240100-
WEST CENTRAL ARKANSAS

CITY           SKY/WX    TMP DP  RH WIND       PRES   REMARKS
MENA           PTSUNNY   81  79  94 CALM      29.98S HX  89
MOUNT IDA      MOCLDY    78  71  79 CALM      29.96R
6HR MIN TEMP:  74; 6HR MAX TEMP:  86; 6HR PCP:  0.32;

$$

ARZ009-017-025-026-028-240100-
NORTHEAST ARKANSAS

CITY           SKY/WX    TMP DP  RH WIND       PRES   REMARKS
CORNING        FAIR      79  63  57 E3        29.99F
JONESBORO      CLEAR     77  63  61 NE7       29.99S
6HR MIN TEMP:  77; 6HR MAX TEMP:  83;

NEWPORT        CLEAR     75  66  73 NE6       29.99F
6HR MIN TEMP:  75; 6HR MAX TEMP:  80;

WALNUT RIDGE   CLEAR     79  63  57 CALM      29.99S
6HR MIN TEMP:  79; 6HR MAX TEMP:  81;

BLYTHEVILLE    PTCLDY    75  63  66 N7        29.99S
6HR MIN TEMP:  75; 6HR MAX TEMP:  84;

$$

ARZ022-023-033-042-044-240100-
CENTRAL ARKANSAS

CITY           SKY/WX    TMP DP  RH WIND       PRES   REMARKS
LITTLE ROCK    PTCLDY    78  69  73 NE10      29.97S
6HR MIN TEMP:  78; 6HR MAX TEMP:  84;

N LITTLE ROCK    N/A     75  67  76 NE9       29.98S
6HR MIN TEMP:  75; 6HR MAX TEMP:  82;

JACKSONVILLE   MOCLDY    78  67  68 NE9       29.97S
6HR MIN TEMP:  78; 6HR MAX TEMP:  83;

CONWAY           N/A     77  66  69 NE7       29.96F
SEARCY         CLOUDY    79  68  69 NE10      30.00S
6HR MIN TEMP:  78; 6HR MAX TEMP:  81;

HOT SPRINGS    MOCLDY    81  72  74 E8        29.97R HX  85
6HR MIN TEMP:  81; 6HR MAX TEMP:  87; 6HR PCP: TRACE;

RUSSELLVILLE   CLEAR     78  67  68 E5        29.97F
6HR MIN TEMP:  78; 6HR MAX TEMP:  83;

CLINTON        FAIR      77  66  69 CALM      29.99F
$$

ARZ036-240100-
EAST ARKANSAS

CITY           SKY/WX    TMP DP  RH WIND       PRES   REMARKS
WEST MEMPHIS   CLOUDY    78  64  61 N9        29.96F
6HR MIN TEMP:  78; 6HR MAX TEMP:  85;

$$

ARZ050-053-066-070-073-240100-
SOUTHWEST ARKANSAS

CITY           SKY/WX    TMP DP  RH WIND       PRES   REMARKS
ARKADELPHIA    CLOUDY    81  74  79 NE7       29.94S HX  86
6HR MIN TEMP:  81; 6HR MAX TEMP:  89;

CAMDEN         CLEAR     84  72  65 NE7       29.91S HX  89
TEXARKANA      CLEAR     83  74  74 NE6       29.92S HX  89
6HR MIN TEMP:  83; 6HR MAX TEMP:  88;

EL DORADO      PTCLDY    85  74  69 NE6       29.91R HX  92
6HR MIN TEMP:  85; 6HR MAX TEMP:  92;

DE QUEEN       PTSUNNY   81  73  76 CALM      29.92S HX  86
6HR MIN TEMP:  81; 6HR MAX TEMP:  89;

$$

ARZ056-057-069-240100-
SOUTHEAST ARKANSAS

CITY           SKY/WX    TMP DP  RH WIND       PRES   REMARKS
PINE BLUFF     PTCLDY    81  71  71 N12       29.94S HX  85
6HR MIN TEMP:  81; 6HR MAX TEMP:  87;

MONTICELLO     CLOUDY    81  73  76 CALM      29.93S HX  86
6HR MIN TEMP:  80; 6HR MAX TEMP:  91;


$$





USA.gov is the U.S. government's official web portal to all federal, state and local government web resources and services.